www.pogodaiklimat.ru

Погода и климат >> Архив погоды >> Россия >> Ханты-Мансийский АО >> Няксимволь


АРХИВ ПОГОДЫ в Няксимволе

Время (UTC), дата Ветер
(напр.,м/с)
 
Видим.   Явления Облачность Т
(С)
Тd
(С)
f
(%)
Тe
(С)
Тes
(С)
Комфортность P
(гПа)
Po
(гПа)
Тmin
(С)
Tmax
(С)
R
(мм)
R24
(мм)
S
(см)
09 12.07 Ю 1 50 км 8/3 1000 м
[Cu hum Ci]
+21.1 +10.5 51 +23 +31 комфорт 1011.4 1005.5
12 12.07 С 1 50 км 6/4 1000 м
[Cu med, cong Ci fib]
+21.6 +12.1 55 +24 +28 комфорт 1011.1 1005.2
15 12.07 Ю 1 50 км 8/8 1000 м
[Sc Ac As]
+22.1 +11.7 52 +24 +25 комфорт 1011.3 1005.4 +24.2
18 12.07 ЮВ 1
{11}
50 км {гроза, дождь} 6/0
[Ac trans]
+14.1 +13.4 96 +14 +14 1012.6 1006.5
21 12.07 В 1 20 км 4/0
[Ci fib]
+11.9 +11.5 97 +12 +12 1014.0 1007.9
00 13.07 СВ 1 50 км 5/0
[Ac trans Ci fib]
+10.5 +10.3 99 +10 +10 1014.5 1008.3
03 13.07 В 1 50 км 9/0
[Ci fib]
+15.4 +13.8 90 +16 +20 1014.4 1008.4 +10.2 0.4
06 13.07 В 1 20 км слаб. дождь 10/10 600 м
[Sc]
+15.8 +15.2 96 +16 +16 1014.5 1008.5
12 13.07 В 3 50 км {дождь} 8/0
[Ac As Ci sp]
+21.1 +17.0 77 +25 +28 комфорт 1007.1 1001.2
15 13.07 З 1 50 км 10/10 1000 м
[Sc]
+21.1 +18.7 86 +25 +25 комфорт 1005.3 999.5 +22.4 5
18 13.07 Ю 2 50 км в посл. час гроза {ливн. осадки} 8/4 600 м
[Cb cap Ac As Ci fib]
+19.0 +18.9 99 +21 +21 комфорт 1006.3 1000.4
21 13.07 В 1 20 км 8/0
[Ac As Ci sp]
+17.5 +17.4 99 +19 +19 1006.0 1000.1
00 14.07 штиль 0 50 км 9/9 600 м
[Sc]
+17.3 +17.3 100 +17 +17 1006.8 1000.9
03 14.07 С 1 20 км слаб. дождь 10/10 600 м
[Sc]
+18.7 +18.7 100 +21 +21 комфорт 1007.9 1001.9 +17.0 9
06 14.07 С 1 50 км {дождь} 10/10 1000 м
[Sc]
+21.0 +19.7 92 +27 +27 душно 1008.2 1002.3
09 14.07 СВ 3 50 км 8/4 1000 м
[Sc Ci fib]
+24.4 +20.4 78 +30 +35 очень
душно
1005.8 1000.0
12 14.07 С 3 50 км 10/6 1000 м
[Sc Ci fib]
+25.0 +20.7 77 +31 +33 очень
душно
1005.0 999.3
15 14.07 СВ 3 50 км {гроза} 9/8 1000 м
[Sc Ci]
+23.2 +20.0 82 +30 +30 очень
душно
1004.3 998.5 +25.6 0.4
18 14.07 З 4
{12}
20 км гроза, ливневой дождь 10/10 600 м
[Cb cap]
+19.0 +18.9 99 +21 +21 комфорт 1006.6 1000.7
21 14.07 штиль 0 20 км {гроза, ливн. осадки} 10/0
[As trans]
+18.1 +18.1 100 +18 +18 1005.3 999.4
00 15.07 ЮЗ 2 50 км 8/0
[As trans]
+16.5 +16.5 100 +17 +17 1007.4 1001.4
03 15.07 ЮЗ 2 50 км 4/0
[Ci fib]
+18.5 +16.6 89 +20 +24 1008.4 1002.4 +16.3 10
06 15.07 З 2 50 км 8/8 1000 м
[Sc Ac trans]
+21.1 +15.0 68 +24 +26 комфорт 1008.7 1002.8
09 15.07 ЮВ 1 50 км 10/10 1000 м
[Sc Ac trans]
+21.0 +15.2 69 +25 +25 комфорт 1008.6 1002.7
12 15.07 СВ 1 50 км 10/0
[Ac As Cs]
+21.8 +15.6 68 +25 +28 комфорт 1007.9 1002.1
15 15.07 С 1 50 км 10/0
[Ac und]
+21.4 +17.6 79 +26 +26 душно 1006.9 1001.0 +22.7
18 15.07 СЗ 2 50 км 8/8 1000 м
[Sc Ac trans Cs]
+19.2 +16.8 86 +21 +21 комфорт 1005.7 999.8
21 15.07 С 1 20 км 8/8 1000 м
[Sc Ac trans Cs]
+19.1 +16.7 86 +22 +22 комфорт 1003.6 997.7
00 16.07 СЗ 2 50 км 8/8 1000 м
[Sc Ac trans]
+17.6 +16.8 95 +18 +18 1002.8 996.9
03 16.07 СВ 3 50 км 10/8 1000 м
[Sc Ac trans Cs]
+23.3 +19.2 78 +30 +30 очень
душно
1001.3 995.5 +17.0
06 16.07 В 3
{11}
50 км 8/4 1000 м
[Sc Cs]
+26.2 +19.1 65 +31 +36 очень
душно
999.9 994.2
09 16.07 В 3 50 км 9/8 1000 м
[Sc Ci sp]
+27.9 +17.6 54 +32 +34 душно 997.2 991.5
12 16.07 В 1 50 км 10/10 600 м
[Cb cap]
+27.2 +20.5 67 +34 +34 очень
душно
998.5 992.8
15 16.07 Ю 4 50 км {ливн. осадки} 10/10 600 м
[Cb cap]
+23.2 +19.2 78 +30 +30 очень
душно
999.5 993.7 +30.5 0.3
18 16.07 В 2 50 км {ливн. осадки} 10/10 600 м
[Sc]
+18.8 +18.3 97 +21 +21 комфорт 999.7 993.8
21 16.07 В 1 20 км 8/8 1000 м
[Sc]
+18.2 +18.0 99 +20 +20 1000.4 994.5
00 17.07 штиль 0 50 км 10/10 1000 м
[Sc]
+17.7 +17.6 99 +18 +18 1001.6 995.7
03 17.07 СЗ 2 50 км слаб. дождь 10/10 600 м
[Sc]
+17.0 +16.9 99 +17 +17 1002.8 996.9 +17.0 4
06 17.07 СЗ 4 50 км {дождь} 10/10 1000 м
[Sc]
+16.1 +14.4 90 +15 +15 1003.4 997.5 +16.0
09 17.07 СЗ 3 50 км 10/10 1000 м
[Sc]
+18.3 +16.2 88 +19 +19 1004.0 998.1
12 17.07 СЗ 4 50 км 10/10 1000 м
[Sc]
+17.3 +14.3 83 +17 +17 1005.4 999.4
15 17.07 СЗ 5
{10}
50 км {дождь} 10/10 1000 м
[Sc]
+15.4 +13.7 90 +14 +14 1006.2 1000.2 +18.8 1
18 17.07 СЗ 6-11
{11}
50 км {дождь} 10/10 1000 м
[Sc]
+14.0 +12.1 88 +12 +12 1006.0 1000.0
21 17.07 СЗ 3
{11}
20 км 10/10 1000 м
[Sc]
+13.3 +12.2 93 +12 +12 1005.9 999.8
00 18.07 З 2 50 км 9/9 1000 м
[Sc]
+13.4 +13.2 99 +13 +13 1005.5 999.4
03 18.07 СЗ 1 50 км 10/10 1000 м
[Sc]
+15.2 +14.9 98 +16 +16 1005.0 999.0 +13.1 0.6
06 18.07 ЮВ 2 50 км 10/10 1000 м
[Sc]
+18.2 +15.7 85 +19 +19 1004.6 998.7
09 18.07 ЮЗ 2 50 км в посл. час дождь 10/10 1000 м
[Sc]
+17.6 +15.9 90 +18 +18 1005.1 999.1
12 18.07 З 3 50 км морось {дождь} 10/10 300 м
[St]
+14.6 +14.0 96 +14 +14 1006.3 1000.2
15 18.07 ЮЗ 1 50 км слаб. морось {дождь} 10/10 300 м
[St]
+13.2 +12.8 97 +13 +13 1006.9 1000.9 +18.6 3
18 18.07 ЮЗ 2 50 км слаб. дождь 10/10 1000 м
[Sc]
+11.6 +11.4 99 +10 +10 1007.8 1001.7
21 18.07 ЮЗ 2 20 км {дождь} 10/10 1000 м
[Sc]
+10.7 +10.6 99 +9 +9 1008.1 1002.0
00 19.07 Ю 1 50 км {дождь} 8/8 1000 м
[Sc]
+10.0 +9.8 99 +9 +9 1008.7 1002.6
03 19.07 Ю 2 50 км 8/8 1000 м
[Sc]
+12.0 +10.7 92 +11 +12 1009.3 1003.2 +9.8 4

 

Местоположение метеостанции Няксимволь (Ханты-Мансийский АО, Россия): широта 62.43 долгота 60.87 высота над уровнем моря 51 м.

В архиве по умолчанию представлена погода в Няксимволе за последнюю неделю. Архивные данные за месяц целиком и за предыдущие месяцы, начиная с января 2011 года, Вы можете получить, выбрав интересующий диапазон дат из раскрывающегося списка и нажав кнопку "Ввод!".


*Определитесь, кто Вы:
робот инопланетянин человек

Внимание! Время в таблицах - всемирное. Для получения местного времени необходимо прибавить поправку, которая равна 5 ч.

Смотрите также архив погоды в соседних городах и на ближайших метеорологических станциях:

Погода в Приполярном (Ханты-Мансийский АО, Россия) (101 км)
Погода в Агирише (Ханты-Мансийский АО, Россия) (125 км)
Погода в Бурмантово (Свердловская область, Россия) (130 км)
Погода в Сосьве (Ханты-Мансийский АО, Россия) (149 км)
Погода в Атымье (Свердловская область, Россия) (171 км)
Погода в Югорске (Ханты-Мансийский АО, Россия) (182 км)
Погода в Ивделе (Свердловская область, Россия) (196 км)
Погода в Игриме (Ханты-Мансийский АО, Россия) (201 км)
Погода в Саранпауле (Ханты-Мансийский АО, Россия) (206 км)
Погода в Вонъегане (Ханты-Мансийский АО, Россия) (216 км)

Пояснения к столбцам:

Ветер - указаны скорость ветра в м/с - средняя за 10 мин, порывы в срок и между сроками (в фигурных скобках) и направление, откуда дует ветер: С - северный, СВ - северо-восточный, В - восточный, ЮВ - юго-восточный, Ю - южный, ЮЗ - юго-западный, З - западный, СЗ - северо-западный.
Видимость - горизонтальная дальность видимости в метрах или километрах. При видимости от 1 до 10 км при отсутствии осадков обычно наблюдается дымка, при ухудшении видимости до 1 км и менее - туман. В сухую погоду видимость может ухудшаться дымом, пылью или мглою.
Явления - указаны атмосферные явления, наблюдавшиеся в срок или в последний час перед сроком; фигурными скобками обозначены явления, наблюдавшиеся между сроками (за 1-3 часа до срока); квадратными скобками обозначены град или гололедные отложения с указанием их диаметра в мм.
Облачность - указаны через наклонную черту общая и нижняя облачность в баллах и высота нижней границы облаков в метрах; квадратными скобками обозначены формы облаков: Ci - перистые, Cs - перисто-слоистые, Cc - перисто-кучевые, Ac - высококучевые, As - высокослоистые, Sc - слоисто-кучевые, Ns - слоисто-дождевые, Cu - кучевые, Cb - кучево-дождевые. Подробнее классификацию облаков см. в Атласе облаков (PDF).
T - Температура воздуха - температура, измеренная на высоте 2 м над землей.
Td - Температура точки росы - температура, при понижении до которой содержащийся в воздухе водяной пар достигнет насыщения.
f - Относительная влажность воздуха - влажноcть воздуха, измеренная на высоте 2 м над землей.
Te - Эффективная температура - температура, которую ощущает одетый по сезону человек в тени. Характеристика душности погоды. При расчете учитывается влияние влажности воздуха и скорости ветра на теплоощущения человека.
Tes - Эффективная температура на солнце - температура, которую ощущает человек, с поправкой на солнечный нагрев. Характеристика знойности погоды. Зависит от высоты солнца над горизонтом, облачности и скорости ветра. Ночью, в пасмурную погоду, а также при ветре 12 м/с и более поправка равна нулю.
P - Атмосферное давление - приведенное к уровню моря атмосферное давление.
Po - Атмосферное давление - измеренное на уровне метеостанции атмосферное давление.
Tmin - Минимальная температура - минимум температуры воздуха на высоте 2 м над землей.
Tmax - Максимальная температура - максимум температуры воздуха на высоте 2 м над землей.
R - Количество осадков - Количество выпавших осадков за период времени, мм. При наведении курсора мыши на число - период времени, за который выпало указанное количество осадков.
R24 - Количество осадков - Количество выпавших осадков за 24 часа, мм.
S - Снежный покров - Высота снежного покрова, см. При наведении курсора мыши на число - состояние снежного покрова и степень покрытия местности в баллах.